Starlink 11400

operational
NORAD ID: 63017 Int'l Des: 2025-032 Owner: SPXS Country: US Constellation: starlink
LEOCIRCULAR

Starlink 11400について

説明を読み込み中...

リアルタイム位置

3D地球を読み込み中...

次回通過

高度履歴

Altitude vs Time

uPlot chart will show altitude changes over time

軌道要素

1 63017U 25032N 25305.14029744 .00278631 00000-0 20961-2 0 9992
2 63017 43.0005 250.4301 0001042 281.3306 78.7445 15.70918056 41996
Epoch: Nov 1, 2025 • Age: 35 hours

現在のステータス

高度 357.0 km
速度 7.70 km/s
衛星直下点 -16.95°S, 34.66°W
打ち上げ日 Feb 15, 2025
運用期間 0.7 years
タイプ internet

技術仕様

分類 Payload
質量 960.00 kg
乾燥質量 910.00 kg
総質量 960.00 kg
長さ 0.30 m
直径 4.10 m
スパン 29.00 m
形状 Box + pan
製造者 SPXS
バスタイプ Starlink V2MD
フェーズステータス In Orbit
所有者/国 SPXS/US

大規模コンステレーション

Loading constellations...